Temp
-15 -15 -15 -15 -15 -15 -14 -14 -14 -14 -14 -14 -14 -13 -14 -13 -14 -14 -13 -13 -13 -13 -14 -13 -14 -15 -14 -14 -14 -14 -14 -14 -13 -13 -14 -14 -14 -15 -15 -15 -15 -15 -15
-16 -16 -16 -16 -15 -15 -15 -14 -14 -14 -14 -14 -14 -14 -13 -14 -14 -13 -14 -14 -14 -14 -14 -14 -14 -14 -14 -13 -14 -14 -14 -14 -14 -13 -14 -15 -15 -15 -15 -16 -16 -15 -15
-17 -17 -17 -17 -17 -16 -15 -15 -15 -14 -14 -14 -14 -14 -14 -14 -14 -14 -14 -14 -14 -14 -14 -14 -14 -13 -14 -14 -14 -13 -14 -14 -14 -14 -14 -14 -14 -14 -15 -15 -15 -15 -16
-19 -18 -17 -18 -17 -17 -16 -16 -16 -15 -15 -15 -15 -15 -14 -14 -14 -14 -14 -14 -14 -14 -14 -14 -14 -14 -14 -14 -14 -14 -14 -14 -15 -14 -14 -14 -14 -14 -15 -15 -15 -15 -15
-21 -20 -19 -18 -18 -17 -17 -17 -16 -16 -15 -15 -15 -15 -15 -14 -15 -15 -14 -15 -14 -15 -15 -14 -15 -15 -15 -14 -14 -15 -15 -15 -15 -15 -14 -15 -14 -14 -15 -15 -15 -15 -15
-21 -21 -20 -19 -18 -17 -17 -17 -17 -16 -16 -16 -16 -16 -15 -16 -15 -14 -15 -15 -15 -16 -15 -15 -15 -14 -14 -14 -15 -15 -15 -15 -15 -15 -15 -15 -14 -15 -15 -15 -15 -15 -15
-21 -20 -20 -20 -19 -17 -17 -17 -17 -16 -17 -16 -17 -17 -16 -16 -16 -15 -15 -16 -17 -16 -16 -15 -15 -15 -14 -15 -15 -15 -15 -15 -15 -15 -15 -14 -15 -14 -15 -15 -15 -15 -15
-21 -21 -20 -19 -18 -17 -17 -17 -16 -16 -17 -17 -17 -17 -16 -16 -17 -16 -17 -17 -16 -16 -15 -15 -15 -16 -15 -15 -15 -15 -15 -15 -15 -15 -14 -14 -14 -14 -15 -15 -15 -15 -15
-20 -20 -20 -19 -18 -17 -17 -17 -17 -17 -17 -17 -17 -17 -17 -17 -17 -17 -17 -17 -16 -16 -16 -17 -17 -16 -16 -15 -15 -15 -15 -15 -15 -14 -14 -13 -14 -14 -15 -15 -15 -15 -15
-19 -19 -19 -19 -18 -18 -18 -17 -18 -18 -18 -18 -18 -18 -19 -19 -19 -19 -19 -19 -19 -19 -19 -19 -18 -18 -18 -18 -17 -17 -17 -17 -17 -17 -17 -16 -16 -16 -16 -16 -16 -17 -17
-21 -21 -20 -20 -19 -19 -19 -20 -20 -20 -20 -19 -19 -19 -19 -19 -19 -19 -19 -19 -19 -19 -19 -19 -19 -19 -19 -18 -18 -18 -18 -18 -18 -17 -17 -17 -17 -17 -17 -18 -18 -18 -18
-20 -20 -20 -20 -20 -20 -20 -20 -20 -19 -19 -19 -19 -19 -19 -19 -19 -19 -19 -19 -19 -20 -20 -20 -20 -20 -19 -18 -18 -18 -18 -18 -18 -18 -17 -17 -17 -17 -18 -18 -18 -18 -18
-20 -20 -20 -20 -20 -20 -20 -20 -20 -20 -20 -20 -20 -20 -20 -20 -20 -20 -20 -20 -20 -20 -20 -20 -20 -20 -20 -20 -19 -19 -18 -18 -19 -19 -19 -18 -18 -18 -18 -18 -18 -18 -20
-20 -20 -20 -20 -20 -20 -20 -20 -20 -20 -21 -21 -21 -20 -20 -20 -20 -20 -20 -20 -20 -20 -20 -20 -20 -20 -19 -20 -20 -20 -20 -20 -20 -20 -20 -20 -19 -19 -19 -19 -19 -19 -20
-20 -20 -20 -20 -20 -20 -21 -21 -21 -21 -21 -21 -21 -20 -20 -20 -20 -20 -20 -20 -20 -20 -20 -20 -20 -20 -21 -20 -21 -21 -22 -22 -23 -23 -22 -21 -21 -20 -20 -20 -20 -22 -22
-20 -21 -21 -21 -21 -21 -21 -21 -21 -21 -21 -21 -21 -20 -20 -20 -20 -20 -20 -20 -21 -21 -21 -21 -21 -21 -21 -23 -24 -25 -26 -26 -25 -24 -24 -23 -22 -21 -21 -21 -22 -22 -22
-21 -21 -21 -21 -21 -21 -21 -21 -21 -21 -21 -21 -20 -21 -21 -21 -20 -20 -20 -21 -21 -21 -21 -22 -21 -22 -23 -26 -27 -27 -27 -26 -26 -25 -25 -24 -23 -22 -22 -21 -22 -23 -23
-21 -21 -21 -21 -21 -21 -21 -21 -21 -21 -21 -21 -21 -21 -21 -21 -21 -21 -21 -21 -21 -21 -22 -22 -22 -23 -24 -27 -27 -27 -27 -26 -26 -26 -26 -26 -25 -24 -24 -25 -25 -25 -24
-20 -21 -21 -21 -21 -21 -21 -21 -21 -21 -21 -21 -21 -21 -21 -21 -21 -21 -21 -21 -21 -21 -22 -22 -23 -23 -24 -27 -27 -27 -27 -27 -26 -26 -26 -26 -26 -26 -26 -27 -26 -25 -24
-21 -21 -21 -21 -21 -21 -22 -22 -22 -22 -22 -22 -21 -21 -21 -22 -22 -22 -22 -23 -22 -22 -23 -23 -23 -24 -24 -27 -27 -27 -27 -27 -27 -27 -27 -27 -26 -26 -26 -27 -26 -26 -25
-21 -21 -21 -21 -21 -22 -22 -22 -22 -22 -22 -23 -22 -22 -22 -22 -23 -23 -23 -23 -23 -24 -24 -24 -24 -25 -25 -26 -27 -27 -28 -27 -27 -27 -27 -27 -27 -27 -27 -26 -26 -26 -26
-21 -21 -21 -21 -22 -22 -22 -22 -22 -22 -23 -23 -23 -23 -23 -23 -23 -23 -24 -24 -24 -25 -25 -25 -25 -25 -25 -26 -27 -27 -28 -28 -28 -27 -28 -27 -27 -27 -27 -27 -27 -27 -26
-21 -21 -21 -22 -22 -22 -22 -22 -23 -23 -23 -23 -23 -23 -23 -23 -23 -24 -24 -25 -25 -26 -26 -26 -26 -27 -26 -26 -26 -28 -28 -28 -28 -28 -28 -28 -28 -28 -28 -28 -28 -28 -28
-21 -21 -22 -22 -22 -23 -23 -23 -23 -23 -23 -24 -24 -24 -24 -24 -24 -24 -25 -25 -25 -26 -27 -27 -27 -27 -27 -27 -27 -27 -28 -28 -28 -28 -28 -28 -29 -28 -28 -28 -29 -29 -29
-21 -21 -22 -22 -22 -23 -23 -23 -23 -24 -24 -24 -24 -24 -24 -25 -25 -25 -25 -26 -26 -26 -27 -27 -28 -28 -28 -28 -28 -28 -29 -29 -29 -29 -29 -29 -29 -29 -29 -29 -29 -29 -29
-21 -22 -22 -22 -22 -23 -23 -23 -23 -24 -24 -24 -24 -24 -25 -25 -25 -26 -26 -27 -27 -27 -27 -28 -28 -28 -29 -29 -29 -28 -28 -29 -30 -30 -30 -30 -30 -30 -30 -30 -30 -30 -30
Height
5678 5683 5688 5691 5696 5701 5706 5711 5716 5721 5725 5728 5730 5731 5731 5732 5733 5734 5734 5734 5733 5734 5732 5729 5729 5727 5725 5724 5722 5721 5717 5715 5713 5713 5713 5712 5710 5709 5706 5702 5699 5695 5692
5660 5668 5673 5680 5683 5690 5696 5701 5705 5710 5714 5717 5722 5724 5723 5721 5724 5722 5723 5724 5723 5722 5723 5719 5719 5716 5716 5711 5711 5710 5707 5705 5703 5703 5702 5701 5699 5697 5695 5693 5689 5688 5682
5638 5649 5660 5667 5672 5678 5684 5690 5695 5700 5703 5706 5711 5713 5714 5713 5713 5714 5713 5714 5713 5712 5709 5708 5709 5707 5706 5704 5701 5697 5699 5695 5692 5690 5692 5688 5688 5686 5683 5679 5677 5674 5671
5615 5627 5642 5654 5662 5669 5675 5681 5685 5690 5694 5696 5699 5703 5704 5705 5705 5704 5704 5704 5700 5700 5697 5697 5695 5692 5693 5692 5691 5689 5686 5682 5679 5677 5678 5676 5674 5671 5668 5666 5662 5660 5657
5601 5612 5627 5640 5651 5661 5667 5672 5678 5682 5686 5687 5689 5689 5692 5691 5686 5691 5693 5690 5688 5686 5685 5683 5683 5682 5680 5678 5676 5673 5671 5669 5664 5660 5662 5659 5658 5656 5653 5650 5646 5645 5641
5601 5610 5617 5631 5644 5654 5661 5667 5671 5675 5673 5674 5676 5677 5680 5682 5681 5680 5679 5675 5675 5676 5673 5672 5671 5669 5666 5663 5661 5659 5656 5652 5647 5644 5644 5641 5641 5641 5637 5634 5631 5627 5624
5604 5609 5620 5629 5639 5650 5656 5661 5665 5667 5668 5668 5669 5670 5671 5672 5670 5668 5665 5663 5664 5662 5660 5659 5655 5652 5650 5648 5647 5645 5640 5635 5631 5628 5627 5626 5622 5622 5621 5617 5614 5610 5608
5606 5611 5620 5628 5638 5647 5653 5656 5658 5659 5660 5660 5660 5660 5661 5660 5659 5657 5655 5653 5652 5649 5647 5644 5641 5637 5633 5631 5630 5627 5624 5618 5613 5611 5610 5609 5604 5602 5600 5597 5594 5591 5589
5610 5616 5620 5627 5636 5643 5647 5649 5650 5651 5652 5653 5652 5652 5651 5650 5649 5648 5646 5643 5639 5635 5632 5628 5626 5621 5617 5614 5613 5610 5606 5600 5596 5593 5589 5587 5584 5582 5580 5577 5575 5573 5570
5613 5619 5625 5628 5634 5638 5642 5643 5644 5645 5646 5646 5645 5645 5645 5644 5643 5641 5637 5634 5630 5626 5621 5616 5612 5606 5602 5597 5594 5590 5588 5582 5578 5574 5570 5567 5565 5564 5562 5558 5557 5556 5554
5623 5623 5625 5629 5633 5636 5639 5640 5642 5642 5644 5644 5643 5642 5641 5640 5637 5634 5631 5627 5622 5616 5611 5605 5598 5592 5586 5581 5576 5573 5569 5565 5560 5558 5555 5552 5550 5548 5546 5544 5542 5540 5539
5632 5633 5634 5635 5637 5639 5641 5643 5643 5643 5643 5642 5641 5640 5637 5634 5631 5627 5623 5619 5613 5609 5602 5595 5587 5579 5571 5564 5559 5554 5549 5545 5542 5539 5536 5534 5532 5531 5529 5528 5527 5525 5525
5636 5636 5636 5637 5638 5640 5640 5640 5640 5640 5640 5638 5635 5633 5629 5626 5622 5617 5613 5608 5603 5597 5589 5581 5572 5563 5554 5546 5539 5532 5527 5523 5520 5517 5516 5514 5512 5511 5509 5509 5508 5508 5509
5640 5640 5641 5642 5642 5642 5642 5642 5640 5639 5636 5634 5631 5628 5625 5621 5616 5612 5607 5602 5596 5588 5580 5571 5559 5546 5534 5524 5515 5508 5503 5499 5496 5494 5493 5493 5492 5491 5491 5490 5490 5490 5492
5645 5645 5644 5644 5644 5643 5642 5641 5639 5637 5635 5631 5628 5624 5620 5615 5610 5606 5600 5594 5587 5579 5569 5558 5544 5529 5513 5500 5490 5482 5477 5473 5471 5470 5470 5470 5470 5471 5471 5472 5472 5474 5475
5647 5647 5646 5645 5644 5643 5641 5639 5636 5633 5629 5625 5621 5617 5612 5607 5602 5596 5589 5583 5576 5568 5558 5546 5531 5512 5495 5482 5472 5464 5459 5457 5455 5454 5454 5453 5453 5454 5455 5455 5457 5459 5462
5647 5646 5645 5644 5642 5640 5638 5634 5631 5627 5624 5620 5615 5610 5605 5599 5593 5587 5582 5575 5567 5558 5546 5533 5517 5501 5483 5469 5461 5456 5450 5448 5445 5443 5442 5441 5439 5439 5439 5440 5442 5444 5446
5644 5643 5641 5639 5637 5634 5631 5628 5624 5621 5617 5613 5609 5604 5598 5592 5585 5579 5572 5564 5554 5545 5535 5523 5510 5495 5477 5466 5457 5451 5446 5441 5438 5435 5432 5432 5430 5427 5426 5428 5431 5433 5436
5642 5640 5638 5635 5632 5629 5625 5622 5618 5614 5610 5605 5600 5595 5590 5583 5577 5570 5562 5554 5545 5535 5525 5514 5502 5489 5473 5462 5454 5448 5442 5437 5431 5428 5425 5424 5423 5422 5420 5420 5422 5425 5426
5638 5635 5633 5630 5627 5624 5621 5617 5612 5608 5603 5598 5592 5587 5581 5575 5568 5561 5553 5544 5536 5526 5517 5507 5496 5483 5470 5460 5451 5445 5439 5434 5428 5424 5421 5419 5418 5417 5416 5415 5415 5415 5416
5633 5630 5627 5624 5621 5618 5614 5610 5606 5601 5596 5590 5585 5579 5573 5566 5560 5552 5545 5536 5527 5519 5509 5499 5490 5480 5468 5456 5448 5442 5435 5431 5426 5423 5419 5415 5413 5413 5412 5412 5412 5412 5411
5626 5623 5621 5617 5614 5610 5606 5602 5598 5594 5589 5583 5577 5569 5563 5556 5549 5543 5535 5527 5518 5510 5502 5493 5483 5474 5466 5454 5445 5439 5432 5427 5424 5420 5417 5414 5411 5408 5407 5407 5408 5408 5408
5617 5614 5611 5608 5605 5601 5596 5592 5588 5583 5578 5573 5567 5561 5553 5546 5539 5533 5526 5519 5512 5503 5495 5487 5478 5470 5463 5454 5443 5436 5429 5425 5421 5417 5414 5412 5409 5407 5405 5403 5403 5403 5404
5606 5603 5600 5597 5594 5590 5587 5582 5578 5573 5567 5561 5556 5551 5546 5537 5529 5522 5516 5510 5503 5496 5489 5482 5474 5466 5458 5451 5443 5432 5428 5423 5419 5414 5410 5408 5406 5405 5403 5401 5399 5399 5399
5594 5592 5589 5586 5583 5580 5575 5571 5567 5562 5557 5551 5546 5539 5534 5530 5521 5513 5506 5500 5495 5489 5482 5475 5468 5462 5455 5448 5443 5435 5426 5421 5416 5410 5406 5404 5402 5400 5399 5398 5396 5394 5393
5583 5580 5577 5574 5571 5568 5564 5560 5556 5551 5546 5540 5534 5528 5522 5517 5512 5503 5495 5489 5485 5479 5474 5469 5462 5455 5449 5444 5439 5434 5427 5419 5414 5407 5405 5402 5399 5397 5394 5393 5392 5391 5389
Wind_Speed
61 60 58 57 57 55 55 54 51 47 45 43 43 39 33 37 34 33 38 45 43 41 39 38 36 37 38 41 47 41 46 46 46 46 43 42 42 41 41 45 47 48 50
69 63 59 56 58 56 55 54 51 49 48 46 45 45 50 33 39 38 40 40 42 51 49 39 42 41 38 41 38 47 49 44 48 44 43 46 46 46 46 47 48 46 45
66 73 63 55 55 54 54 52 49 49 49 46 45 44 46 47 47 47 48 55 50 50 50 47 42 36 43 49 45 44 55 52 50 50 58 50 52 51 53 47 51 51 56
55 69 71 59 53 51 50 46 42 41 41 41 43 45 39 46 52 47 46 47 40 40 35 43 43 47 53 50 48 50 54 55 63 62 61 60 57 58 58 61 59 56 53
38 51 51 55 53 46 41 40 39 39 41 46 46 47 49 50 46 39 51 44 51 56 56 44 49 49 55 61 57 59 61 63 64 65 60 69 61 57 57 60 62 61 64
21 37 44 46 49 43 39 32 30 36 43 41 34 40 48 49 47 45 50 45 42 49 51 56 58 63 65 63 67 67 60 63 66 67 71 64 67 65 60 60 64 67 68
15 26 35 30 35 38 34 31 29 33 34 35 34 37 44 45 54 52 60 51 50 52 54 55 52 53 57 59 63 63 64 68 63 67 70 73 76 73 73 70 61 60 60
13 21 25 21 23 26 30 30 32 35 37 39 39 42 40 42 48 54 53 52 55 54 56 58 54 55 56 60 62 63 66 70 68 69 68 68 71 70 71 70 71 72 73
13 16 24 24 20 24 26 22 23 24 26 32 32 32 33 36 38 40 45 51 50 48 47 49 49 52 57 60 65 67 68 68 72 74 69 72 67 71 71 70 73 73 68
16 12 10 14 13 11 15 15 18 22 25 26 23 20 19 18 20 25 26 32 36 40 43 46 48 48 50 53 56 57 57 55 56 55 56 56 57 59 59 55 54 53 46
30 31 25 15 8 7 6 8 4 5 8 11 13 16 19 22 25 29 32 36 40 43 46 49 52 54 57 58 59 58 58 57 57 56 54 54 53 52 50 49 50 50 48
19 18 16 15 13 11 8 5 6 7 9 13 18 21 23 24 23 24 27 31 35 38 41 45 49 52 58 64 66 66 66 64 62 61 60 58 57 58 58 57 56 53 51
14 15 15 13 11 9 9 9 8 8 10 13 15 19 22 24 27 29 36 41 43 47 50 52 55 59 60 60 62 65 70 71 69 66 63 61 57 56 55 53 53 54 48
24 24 24 22 20 18 17 15 15 16 18 20 21 21 22 23 27 31 34 39 41 47 51 57 60 62 63 61 58 57 59 62 68 69 65 62 58 55 55 53 52 51 53
18 17 17 17 16 16 17 17 16 16 18 21 23 24 25 27 30 33 35 38 40 49 54 61 67 66 66 64 62 57 56 55 55 58 58 56 55 52 49 47 47 44 41
16 15 15 14 13 15 17 18 19 20 22 25 29 31 33 34 35 35 36 40 45 51 55 65 69 77 66 56 51 49 47 44 44 44 45 47 46 46 46 45 44 45 38
14 14 15 16 17 18 19 21 23 25 26 28 32 35 35 37 36 36 40 44 46 54 59 65 72 80 69 52 42 38 37 39 39 36 37 37 38 39 41 43 38 38 41
16 18 19 20 21 23 25 26 27 28 30 30 33 35 38 41 42 42 44 47 52 57 60 66 67 74 66 48 42 38 36 33 33 33 29 27 26 25 30 31 28 33 30
15 18 20 23 26 28 29 30 32 33 34 35 37 39 42 43 45 47 49 50 52 56 58 62 64 64 64 45 40 37 35 32 28 27 26 23 22 21 19 26 32 32 27
19 21 23 25 28 31 35 37 37 38 39 41 42 45 47 50 51 51 50 51 51 52 54 56 56 57 62 43 39 36 36 31 27 24 22 20 21 22 23 21 22 24 25
25 26 27 29 31 34 37 40 40 41 43 44 46 48 50 52 52 52 51 51 52 52 50 50 51 48 54 46 38 34 33 35 31 25 23 20 19 20 19 21 26 21 21
31 32 33 33 35 36 38 41 45 44 43 44 47 49 52 55 55 55 53 50 49 49 48 48 47 44 47 49 36 31 29 31 31 27 24 23 21 17 16 17 18 25 24
35 36 37 37 38 40 42 46 48 51 53 50 48 49 52 57 59 59 58 53 51 48 46 44 43 41 38 43 43 33 30 29 29 26 23 24 24 23 20 18 18 19 21
37 39 40 40 41 42 45 47 50 51 56 59 61 57 51 54 58 59 58 55 52 51 48 44 40 36 37 38 40 38 32 29 27 26 22 21 22 23 24 22 20 20 20
42 43 44 45 46 47 49 50 52 53 53 58 63 64 60 53 57 60 60 58 53 50 48 45 41 38 33 31 32 32 29 28 26 22 21 20 20 20 22 23 22 20 20
45 46 47 49 50 51 53 53 54 55 56 59 66 66 65 61 54 57 60 58 55 53 51 46 42 40 36 30 25 25 28 28 29 26 23 20 20 19 18 19 20 20 18
Wind_Direction
238 238 241 243 244 245 245 246 247 250 253 255 254 256 253 258 264 278 275 277 269 277 284 279 269 271 278 279 282 286 289 285 289 294 285 286 291 287 283 285 289 293 298
245 238 236 240 243 243 245 245 247 248 250 253 257 259 253 268 260 263 269 276 274 276 279 277 271 268 291 282 286 292 296 287 297 296 294 292 286 287 291 289 288 293 300
241 238 235 235 238 241 243 245 246 249 251 252 254 258 259 262 268 268 271 271 280 282 279 270 271 274 278 281 277 293 290 286 285 287 294 286 291 291 290 295 288 288 291
232 229 230 231 234 237 241 243 243 247 251 253 254 253 257 261 265 267 275 262 270 267 275 270 270 264 280 278 279 280 277 284 289 288 289 290 291 291 288 288 291 292 291
222 216 217 223 229 232 237 243 246 250 256 259 259 252 251 251 271 272 267 266 272 277 274 269 280 273 274 283 274 280 280 281 283 281 279 287 290 291 291 291 293 291 289
218 216 210 214 224 229 236 244 252 241 251 259 268 261 258 258 264 252 258 276 279 285 282 281 280 278 279 279 284 284 278 280 282 285 288 278 288 286 286 290 284 288 289
213 209 211 208 217 227 238 250 258 268 274 279 274 270 266 262 262 262 270 285 284 285 287 289 288 285 283 280 282 283 280 283 285 287 282 284 287 283 280 286 281 288 287
191 189 195 195 217 232 241 258 261 265 266 270 272 271 272 272 272 279 282 283 281 286 285 289 284 282 284 283 283 284 283 284 284 284 287 288 287 285 288 286 281 282 288
159 180 185 192 218 238 254 265 264 267 265 269 273 275 273 275 277 278 277 280 286 289 291 293 292 290 286 283 282 281 284 280 283 287 285 286 285 279 282 284 281 282 285
205 181 188 192 187 208 241 248 259 269 272 271 275 284 288 293 296 299 304 304 303 301 297 294 291 288 285 287 286 284 283 282 283 283 285 283 282 279 280 279 278 272 270
58 63 76 85 110 176 111 51 22 20 341 315 308 304 300 296 297 299 299 298 298 298 297 296 294 294 292 290 287 284 282 281 281 279 277 276 275 274 275 273 275 277 277
62 65 65 62 58 51 40 13 349 324 311 301 297 295 296 299 305 313 319 318 321 321 315 313 309 302 296 289 285 283 282 281 279 278 277 275 274 273 273 272 272 273 274
50 46 46 50 50 41 32 30 24 17 13 359 344 335 331 328 329 335 340 340 332 329 326 323 318 312 304 295 289 285 280 278 277 276 276 275 273 272 271 271 270 270 267
71 72 71 68 62 50 37 27 18 9 358 350 339 331 332 337 344 341 338 335 334 336 332 335 328 318 308 302 294 287 282 275 272 272 272 272 270 269 269 269 268 266 257
66 62 55 56 50 38 26 18 5 353 350 349 344 342 339 338 337 332 333 334 338 338 340 340 340 331 323 314 305 294 286 279 276 272 271 270 269 269 271 270 268 270 266
61 49 40 32 19 5 356 351 344 343 345 344 341 338 337 336 333 336 336 335 338 341 342 347 348 343 338 322 306 295 294 294 290 286 281 276 271 270 271 269 265 265 257
33 23 11 3 355 350 345 343 343 342 341 341 339 337 335 334 336 335 334 335 335 339 344 349 351 346 346 334 325 314 310 304 298 293 287 283 277 269 266 265 263 260 258
10 4 0 355 348 343 339 337 337 336 337 335 335 337 336 336 335 332 331 334 337 339 343 345 348 347 347 335 333 328 321 314 307 299 287 288 301 285 269 250 256 270 271
335 337 339 341 341 338 333 332 332 331 331 331 333 334 336 335 334 332 332 333 336 339 342 344 347 350 351 334 336 331 332 323 320 317 298 282 299 305 300 265 262 266 265
316 312 317 320 324 330 332 330 328 328 328 329 329 330 331 332 334 336 337 337 338 342 345 346 349 354 354 336 336 333 332 330 323 324 320 301 289 293 296 280 277 260 264
304 307 310 312 316 320 323 327 325 325 325 325 326 326 328 330 334 337 339 340 341 341 346 348 349 352 355 347 336 333 333 335 331 323 328 323 307 303 298 293 291 278 260
298 304 308 309 310 314 316 320 324 325 325 323 323 324 326 328 331 336 339 341 342 344 345 346 348 354 356 354 341 335 335 334 333 329 321 320 324 312 302 295 283 280 270
294 298 301 303 305 308 311 315 319 321 325 326 325 326 326 327 329 333 335 339 343 344 345 345 347 348 357 356 355 341 340 334 330 331 328 318 314 312 313 304 297 286 276
290 294 296 297 299 303 306 310 314 317 320 322 325 326 329 325 325 327 332 336 339 343 343 345 345 346 348 353 354 356 340 336 331 325 328 326 313 308 303 300 295 286 278
286 288 291 294 296 298 301 304 308 310 312 315 319 321 324 325 323 324 326 331 335 340 341 340 342 343 345 346 349 353 344 333 327 326 328 325 318 312 305 299 295 291 287
283 286 288 290 292 294 297 300 302 305 308 309 312 317 318 321 323 321 322 326 330 334 337 336 338 338 341 339 338 344 350 342 330 330 324 325 324 316 308 302 298 294 287